Location: Unspecified
(40.4667°N, 0.0000°E)
Time: 11:04:09
(UTC+00:00)

ISS - Pass Details

Date: 21 May 2019
Orbit: 407 x 418 km, 51.6° (Epoch: 20 June)

Event Time Altitude Azimuth Distance (km) Brightness Sun altitude
Rises 23:50:07 0° 309° (NW) 2,364 0.6 -29.4°
Reaches altitude 10° 23:53:03 10° 337° (NNW) 1,502 -0.2 -29.4°
Maximum altitude 23:54:51 14° 9° (N) 1,300 -0.5 -29.4°
Drops below altitude 10° 23:56:39 10° 41° (NE) 1,503 -0.4 -29.4°
Enters shadow 23:57:10 - 48° (NE) 1,620 -0.3 -29.4°
